Location: Luxembourg
(49.6117°N, 6.1300°E)
Time: 04:08:41
(UTC+02:00)

Envisat - Visible Passes

Search period start: 21 April 2018 00:00
Search period end: 01 May 2018 00:00
Orbit: 764 x 766 km, 98.2° (Epoch: 20 April)

Date Brightness Start Highest point End Pass type
(mag) Time Alt. Az. Time Alt. Az. Time Alt. Az.
21 Apr 3.6 21:07:41 10° S 21:12:42 61° W 21:17:46 10° NNW visible
22 Apr 5.6 22:11:57 10° SW 22:15:30 19° W 22:19:03 10° NW visible
23 Apr 4.5 21:33:43 10° SSW 21:38:24 37° W 21:43:08 10° NNW visible
24 Apr 5.9 22:39:58 10° W 22:41:27 11° W 22:42:55 10° WNW visible
25 Apr 5.3 22:00:13 10° SW 22:04:13 23° W 22:08:14 10° NW visible
26 Apr 4.2 21:22:20 10° S 21:27:12 45° W 21:32:05 10° NNW visible
27 Apr 5.7 22:27:30 10° WSW 22:30:08 14° W 22:32:45 10° NW visible
28 Apr 5.0 21:48:38 10° SSW 21:52:57 28° W 21:57:19 10° NW visible
30 Apr 5.6 22:15:30 10° SW 22:18:49 17° W 22:22:10 10° NW visible
